Погода в Новопокровке

Россия / Приморский край     45°51′02″N   134°30′07″E
темп.,
°C
ветер,
м/с
пор.,
м/с
влажн.,
%
обл.,
%
осадки,
мм/ч
давл.,
гПа
погр.,
м
16 мая, вс
вс1601:00+10ююз4995100 0.8 1008408
04:00+9ююз410963 0.8 1008332
07:00+9ююз399347 0.0 1008336
10:00+15юз456087 0.0 1007726
13:00+20зюз463593 0.0 10052309
16:00+20з4638100 0.0 10042195
19:00+17зюз245784 0.0 100385
22:00+12ююз2271100 0.0 100335
17 мая, пн
пн1701:00+10ююз2278100 0.0 100428
04:00+9ю228187 0.0 100326
07:00+11ююз247512 0.0 1004108
10:00+18зюз2445100 0.0 1003634
13:00+23зюз342760 0.0 10031899
16:00+23з562839 0.0 10022129
19:00+20зюз25480 0.0 1002199
22:00+13ююз23640 0.0 100448
18 мая, вт
вт1801:00+12ю35700 0.0 100584
04:00+11ю37715 0.0 1005118
07:00+13ю27660 0.0 1006206
10:00+21ююз47410 0.0 1006599
13:00+26юз57250 0.0 10042277
16:00+27юз59230 0.0 10032315
19:00+23ююз410350 0.0 1003488
22:00+18ю414440 0.0 1003342
19 мая, ср
ср1901:00+16ююз413480 0.0 1004336
04:00+14ю412515 0.0 1004314
07:00+14ююз145911 0.0 1007141
10:00+20зюз35476 0.0 1007944
13:00+24зюз353966 0.0 10061358
16:00+26з573612 0.0 10051876
19:00+22зсз255479 0.0 1007404
22:00+16в11785 0.0 100911
20 мая, чт
чт2001:00+14юв118595 0.0 100913
04:00+13ю2294100 0.8 100928
07:00+14ююв259278 1.3 1010151
10:00+21ююз375451 1.3 1009624
13:00+27зюз59340 0.0 10071964
16:00+28зюз510335 0.0 10071968
19:00+25юз25500 0.0 1006166
22:00+18ююз22670 0.0 100716